sat.trackr.live / text

‹ back to catalog

STARLINK-31327

NORAD 59160 · 2024-044J

PAYLOAD ACTIVE UNKNOWN

§ Identity

Operator
Country
US
Launch date
2024-03-04
Launch site
AFETR
Launch vehicle
Mass (kg)
RCS (m²)

Purposes: comms

External: N2YO · Heavens-Above · Gunter

§ Orbital elements

Epoch: 2026-05-25T03:02:18.373920Z

Period
94.27 min
Inclination
43.0010°
Eccentricity
0.0001123
Mean motion
15.27586443 rev/d
Perigee alt
482.3 km
Apogee alt
483.8 km
Semi-major
6,861.2 km
B*
1.1286e-4
RAAN
35.5239°
Arg perigee
270.0638°
Mean anomaly
90.0085°
Rev number
12,528

§ Raw data

STARLINK-313271 59160U 24044J   26145.12660155  .00002845  00000+0  11286-3 0  99982 59160  43.0010  35.5239 0001123 270.0638  90.0085 15.27586443125286

JSON: /api/v1/satellites/59160 · /tle

For live sub-satellite position, see the globe view (requires WebGL).

§ Visibility from observer

Set your observer location to see the next 7 days of passes ≥ 10°. The values pass through the URL so the page stays shareable.

No JS? Fill the form by hand. The geolocation button needs JavaScript.